User: anonymous   Login
Location: Unspecified
(0.0000°N, 0.0000°E)
Time: 09:29:15
(UTC+00:00)
Language:

Intasat - Orbit

View from above orbital plane
View from above orbital plane
View from above satellite
View from above satellite

Ground track
Ground track

The orbit data is extracted from the following two-line orbital elements,

1  7531U 74089C   17295.92618462 -.00000045 +00000-0 -60267-5 0  9993
2  7531 101.6484 262.4334 0011492 083.7101 345.2708 12.53499824964435
Epoch (UTC): 22 October 2017 22:13:42
Eccentricity: 0.0011492
inclination: 101.6484°
perigee height: 1441 km
apogee height: 1459 km
right ascension of ascending node: 262.4334°
argument of perigee: 83.7101°
revolutions per day: 12.53499824
mean anomaly at epoch: 345.2708°
orbit number at epoch: 96443

The dashed part of the orbit path shows where the satellite is in the earth's shadow,  

DLR